[[{"header":{"parameterUnit":"m.s-1","parameterCategory":1,"la1":30.2991,"la2":30.254,"lo1":-89.0895,"lo2":-89.0444,"dy":0.0017,"dx":0.0017,"nx":28,"ny":28,"refTime":"2024-04-25T21:00:00:Z","depth":0,"parameterNumber":2,"parameterNumberName":"U-component_of_WINDS"},"data":[0,0,0,0,0,0,0,0,0,0,0,0,0,0,0,0,0,0,0,0,0,0,0,0,0,0,0,0,0,0,0,0,0,0,0,0,0,0,0,0,0,0,0,0,0,0,0,0,0,0,0,0,0,0,0,0,0,0,-5.8464,-5.8465,0,-5.853,-5.8531,-5.8531,-5.8489,-5.8487,-5.8485,-5.8484,-5.8547,-5.855,-5.8554,0,0,0,0,0,0,0,0,0,0,0,0,0,-5.83,-5.8304,-5.8464,-5.8465,-5.8466,-5.853,-5.8531,-5.8531,-5.849,-5.8487,-5.8485,-5.8483,-5.8546,-5.855,-5.8554,0,0,0,0,0,0,0,0,0,0,0,0,0,-5.8369,-5.8305,-5.8464,-5.8453,-5.8452,-5.853,-5.8531,-5.8532,-5.849,-5.8487,-5.8484,-5.8482,-5.8544,-5.8549,-5.8555,-5.8645,0,0,-5.8571,-5.8573,0,0,0,0,0,0,0,0,-5.8365,-5.8375,-5.8454,-5.8454,-5.8453,-5.8498,-5.8496,-5.857,-5.8491,-5.8476,-5.8483,-5.848,-5.8533,-5.8539,-5.8557,-5.8648,-5.8651,-5.8571,-5.8574,-5.8577,-5.8578,0,0,0,0,0,0,0,-5.8361,-5.8372,-5.849,-5.8455,-5.8455,-5.8444,-5.845,-5.851,-5.852,-5.8477,-5.8474,-5.8482,-5.8532,-5.8553,-5.8559,-5.8652,-5.8571,-5.8576,-5.8579,-5.8581,-5.882,-5.8823,0,0,0,0,0,0,-5.8357,-5.8368,-5.8488,-5.8492,-5.8401,-5.8449,-5.8456,-5.8487,-5.8519,-5.8521,-5.8485,-5.848,-5.8545,-5.8553,-5.8561,-5.8667,-5.8577,-5.8581,-5.8584,-5.8817,-5.8821,-5.8824,0,0,0,0,0,0,-5.8354,-5.8368,-5.8485,-5.843,-5.8444,-5.8455,-5.849,-5.849,-5.851,-5.8525,-5.8526,-5.8504,-5.8543,-5.8553,-5.8625,-5.8669,-5.8584,-5.8589,-5.8813,-5.8818,-5.8822,-5.8882,0,0,0,0,0,0,-5.8349,-5.8367,-5.8402,-5.8431,-5.8447,-5.8549,-5.8492,-5.8493,-5.8519,-5.8514,-5.8543,-5.8545,-5.8541,-5.8617,-5.863,-5.8675,-5.8593,-5.8809,-5.8815,-5.8821,-5.8876,-5.8889,-5.8899,0,0,0,0,0,-5.8344,-5.8416,-5.8404,-5.8419,-5.8491,-5.8552,-5.8561,-5.8556,-5.8523,-5.8558,-5.8568,-5.8544,-5.8663,-5.8625,-5.8639,-5.8686,-5.8806,-5.8813,-5.882,-5.8871,-5.8886,-5.8899,0,0,0,0,0,0,-5.839,-5.8419,-5.8407,-5.8491,-5.8519,-5.8544,-5.8588,-5.8572,-5.8609,-5.8602,-5.8594,-5.8601,-5.8676,-5.8689,-5.8645,-5.8775,-5.8729,-5.874,-5.8763,-5.8777,-5.8789,-5.8782,-5.8597,0,0,0,0,0,-5.8411,-5.8459,-5.8481,-5.8553,-5.8568,-5.8576,-5.8602,-5.8597,-5.8625,-5.8637,-5.8652,-5.868,-5.8723,-5.8752,-5.8793,-5.888,-5.8884,-5.8919,-5.8931,-5.894,-5.8947,-5.8993,-5.9008,-5.8848,-5.8848,-5.8847,0,0,-5.8453,-5.8475,-5.8505,-5.8563,-5.8585,-5.8633,-5.8586,-5.864,-5.8675,-5.8644,-5.8712,-5.8725,-5.8756,-5.8835,-5.887,-5.8848,-5.8994,-5.8949,-5.8956,-5.8959,-5.9002,-5.9017,-5.903,-5.8853,-5.8852,-5.8851,0,0,-5.8553,-5.8576,-5.8637,-5.866,-5.8694,-5.8699,-5.8714,-5.8743,-5.875,-5.8819,-5.8797,-5.8839,-5.8915,-5.8937,-5.8958,-5.907,-5.9049,-5.9084,-5.9142,-5.9186,-5.9199,-5.921,-5.9247,-5.9261,-5.9093,-5.9093,-5.9093,0,-5.86,-5.8673,-5.8671,-5.8726,-5.8751,-5.8729,-5.879,-5.8813,-5.8858,-5.8875,-5.885,-5.8945,-5.8964,-5.9047,-5.9075,-5.9094,-5.9109,-5.9078,-5.9198,-5.9209,-5.9219,-5.9254,-5.9269,-5.9097,-5.9096,-5.9096,-5.9096,0,-5.8728,-5.878,-5.8825,-5.8871,-5.8902,-5.896,-5.8966,-5.8998,-5.8991,-5.8998,-5.9068,-5.9091,-5.9136,-5.9156,-5.9149,-5.9239,-5.9223,-5.9199,-5.9151,-5.9238,-5.9271,-5.9285,-5.9102,-5.9101,-5.91,-5.9099,0,0,-5.8856,-5.8901,-5.8917,-5.8937,-5.8974,-5.9013,-5.9071,-5.9116,-5.9143,-5.9176,-5.9222,-5.9289,-5.9266,-5.929,-5.9286,-5.9326,-5.941,-5.9296,-5.9296,-5.9313,-5.9508,-5.9524,-5.954,-5.9399,-5.9401,-5.9404,-5.9505,0,-5.8956,-5.9056,-5.9057,-5.9149,-5.9195,-5.9176,-5.9226,-5.9254,-5.9263,-5.9303,-5.9314,-5.9359,-5.9328,-5.9342,-5.9381,-5.9392,-5.9449,-5.9385,-5.9439,-5.9441,-5.9428,-5.9558,-5.9574,-5.9668,-5.9518,-5.952,-5.9522,0,-5.9085,-5.9123,-5.922,-5.9251,-5.927,-5.9315,-5.9356,-5.9396,-5.9427,-5.9432,-5.946,-5.945,-5.9508,-5.9463,-5.9541,-5.9498,-5.9521,-5.953,-5.9534,-5.9535,-5.9484,-5.9559,-5.9698,-5.9711,-5.9543,-5.9541,-5.9539,0,-5.9164,-5.924,-5.9308,-5.9326,-5.9364,-5.9396,-5.9413,-5.9442,-5.9469,-5.9506,-5.9523,-5.9567,-5.9589,-5.9622,-5.9624,-5.9592,-5.9702,-5.9658,-5.9705,-5.9705,-5.9726,-5.9723,-5.9867,-5.9747,-5.9747,-5.9747,-5.9747,0,-5.9273,-5.9332,-5.9344,-5.9385,-5.9451,-5.9452,-5.9517,-5.9531,-5.9557,-5.96,-5.9587,-5.9628,-5.963,-5.9671,-5.9673,-5.9736,-5.9748,-5.9751,-5.975,-5.975,-5.9749,-5.9762,-5.9754,-5.9751,-5.975,-5.9749,-5.9748,0,-5.9371,-5.9381,-5.9453,-5.9485,-5.9494,-5.9541,-5.9567,-5.9606,-5.9616,-5.967,-5.9683,-5.9698,-5.9746,-5.9752,-5.9809,-5.981,-5.9885,-5.9879,-5.9875,-5.9872,-5.9918,-5.9912,-6.0071,-6.0091,-5.9962,-5.9963,-5.9964,0,-5.9438,-5.9483,-5.952,-5.9548,-5.9568,-5.9614,-5.9642,-5.9645,-5.9675,-5.9715,-5.9749,-5.9796,-5.9834,-5.9912,-5.9926,-5.9969,-5.9962,-6.0015,-5.9968,-5.9966,-5.9959,-5.9955,-5.9958,-6.0023,-6.0024,-6.0025,-6.0026,0,-5.9555,-5.9558,-5.96,-5.9644,-5.9679,-5.9713,-5.9746,-5.977,-5.9777,-5.9812,-5.9861,-5.9891,-5.9949,-5.9995,-6.0038,-6.0055,-6.0041,-6.0042,-6.0054,-6.0052,-6.0046,-6.0047,-5.9895,-6.0037,-6.0036,-6.0035,-6.0034,-6.0034,-5.9637,-5.9676,-5.9708,-5.9755,-5.978,-5.9812,-5.9849,-5.9865,-5.9907,-5.9955,-5.9955,-6.0009,-6.004,-6.0096,-6.0116,-6.0158,-6.014,-6.0159,-6.0163,-6.0167,-6.017,-6.0044,-6.0166,-6.0166,-6.0166,-6.0165,-6.0165,0,-5.975,-5.977,-5.9814,-5.9861,-5.9898,-5.9885,-5.9921,-5.9952,-6.0,-6.0031,-6.0069,-6.0126,-6.0171,-6.0191,-6.0236,-6.0265,-6.026,-6.0277,-6.0272,-6.0276,-6.0185,-6.0168,-6.028,-6.028,-6.028,-6.028,-6.028,-6.028,-5.9813,-5.9878,-5.9886,-5.9963,-5.9983,-6.0037,-6.0058,-6.0086,-6.0111,-6.0175,-6.0213,-6.0227,-6.0253,-6.03,-6.0341,-6.0345,-6.0361,-6.0379,-6.0381,-6.0294,-6.0283,-6.0271,-6.0255,-6.0384,-6.0384,-6.0468,-6.0469,-6.0469]},{"header":{"parameterUnit":"m.s-1","parameterCategory":1,"la1":30.2991,"la2":30.254,"lo1":-89.0895,"lo2":-89.0444,"dy":0.0017,"dx":0.0017,"nx":28,"ny":28,"refTime":"2024-04-25T21:00:00:Z","depth":0,"parameterNumber":3,"parameterNumberName":"V-component_of_WINDS"},"data":[0,0,0,0,0,0,0,0,0,0,0,0,0,0,0,0,0,0,0,0,0,0,0,0,0,0,0,0,0,0,0,0,0,0,0,0,0,0,0,0,0,0,0,0,0,0,0,0,0,0,0,0,0,0,0,0,0,0,4.6583,4.6584,0,4.667,4.6671,4.6672,4.6716,4.6716,4.6716,4.6716,4.6798,4.68,4.6802,0,0,0,0,0,0,0,0,0,0,0,0,0,4.6448,4.645,4.6583,4.6584,4.6585,4.667,4.6671,4.6672,4.6716,4.6716,4.6716,4.6716,4.6797,4.6799,4.6802,0,0,0,0,0,0,0,0,0,0,0,0,0,4.6518,4.6451,4.6582,4.6617,4.6621,4.6669,4.6671,4.6672,4.6716,4.6716,4.6716,4.6716,4.6796,4.6799,4.6802,4.6821,0,0,4.6812,4.6813,0,0,0,0,0,0,0,0,4.6514,4.6523,4.6611,4.6615,4.6619,4.6682,4.6653,4.6722,4.6716,4.6679,4.6716,4.6716,4.6759,4.6765,4.6781,4.6825,4.6828,4.6812,4.6814,4.6816,4.6817,0,0,0,0,0,0,0,4.6509,4.6519,4.6617,4.6612,4.6617,4.6626,4.6636,4.6667,4.6717,4.6683,4.6686,4.6696,4.6761,4.6778,4.6783,4.6829,4.6812,4.6815,4.6817,4.6818,4.6894,4.6894,0,0,0,0,0,0,4.6499,4.6515,4.6614,4.662,4.6566,4.6629,4.664,4.6662,4.6717,4.6726,4.6696,4.6698,4.6772,4.6779,4.6786,4.6813,4.6816,4.6819,4.682,4.6894,4.6894,4.6894,0,0,0,0,0,0,4.6496,4.6508,4.6611,4.6568,4.6582,4.6631,4.6655,4.6663,4.668,4.6727,4.6736,4.6704,4.6772,4.6782,4.6813,4.6816,4.682,4.6823,4.6894,4.6894,4.6894,4.6865,0,0,0,0,0,0,4.6492,4.6506,4.6515,4.6568,4.6584,4.6638,4.6655,4.6665,4.6687,4.669,4.6737,4.6745,4.6773,4.6808,4.6816,4.6821,4.6825,4.6894,4.6894,4.6894,4.6866,4.6865,4.6863,0,0,0,0,0,4.6487,4.6502,4.6516,4.6527,4.6597,4.6638,4.6647,4.6681,4.6687,4.6695,4.6726,4.6744,4.6814,4.681,4.682,4.6826,4.6894,4.6894,4.6894,4.6867,4.6865,4.6863,0,0,0,0,0,0,4.6445,4.6509,4.6525,4.6558,4.6592,4.6645,4.6657,4.6677,4.6708,4.671,4.6748,4.6759,4.6786,4.6809,4.6804,4.6847,4.6856,4.6858,4.6832,4.683,4.6829,4.6823,4.6828,0,0,0,0,0,4.644,4.647,4.6524,4.6547,4.6564,4.6607,4.6626,4.665,4.6686,4.67,4.6733,4.6765,4.6795,4.6814,4.6844,4.687,4.6881,4.6878,4.6877,4.6875,4.6876,4.6893,4.6893,4.6895,4.6895,4.6895,0,0,4.6428,4.6467,4.6483,4.6539,4.6569,4.6598,4.6619,4.6648,4.667,4.6704,4.6737,4.6761,4.68,4.6829,4.6844,4.6849,4.6879,4.6875,4.6874,4.6876,4.6893,4.6893,4.6893,4.6895,4.6895,4.6895,0,0,4.6423,4.6456,4.648,4.651,4.6556,4.6585,4.659,4.6641,4.666,4.6694,4.6721,4.6745,4.6795,4.6823,4.6843,4.685,4.6868,4.6858,4.685,4.6866,4.6866,4.6866,4.6869,4.687,4.6859,4.6859,4.6859,0,4.6403,4.645,4.6489,4.6518,4.6542,4.6577,4.6601,4.6627,4.6679,4.6694,4.6699,4.6765,4.6793,4.683,4.6832,4.6847,4.6854,4.6853,4.6863,4.6863,4.6864,4.6868,4.6869,4.6858,4.6858,4.6858,4.6858,0,4.6423,4.6455,4.6469,4.6522,4.6547,4.6573,4.6614,4.6634,4.6656,4.6684,4.6718,4.6754,4.6792,4.6803,4.6822,4.6842,4.6845,4.6856,4.6865,4.6862,4.6866,4.6868,4.6856,4.6857,4.6857,4.6857,0,0,4.6393,4.6469,4.6474,4.6499,4.6553,4.6577,4.6604,4.6645,4.6662,4.6696,4.672,4.6763,4.6775,4.6798,4.6821,4.6834,4.6839,4.6844,4.6846,4.6843,4.6864,4.6856,4.6857,4.6851,4.6852,4.6852,4.6861,0,4.6396,4.645,4.6487,4.6525,4.6556,4.659,4.6614,4.6649,4.6676,4.6704,4.6732,4.6763,4.6776,4.679,4.6805,4.6835,4.6844,4.6835,4.6873,4.6874,4.6863,4.6859,4.685,4.6857,4.6863,4.6863,4.6864,0,4.6407,4.6445,4.6487,4.654,4.6554,4.6575,4.6616,4.6643,4.6682,4.6701,4.6728,4.6752,4.6781,4.6788,4.6828,4.6821,4.6839,4.6856,4.6857,4.6862,4.6869,4.6865,4.686,4.6862,4.6866,4.6866,4.6866,0,4.6382,4.6443,4.6477,4.6497,4.6559,4.6573,4.6599,4.6639,4.6662,4.6696,4.6711,4.6748,4.6768,4.6795,4.6828,4.6829,4.6865,4.6874,4.688,4.688,4.6887,4.6886,4.6885,4.6896,4.6896,4.6896,4.6896,0,4.6383,4.6408,4.6467,4.6488,4.6517,4.6558,4.6585,4.6613,4.6649,4.6675,4.6705,4.6728,4.677,4.6798,4.6824,4.6854,4.6862,4.6877,4.6884,4.6875,4.6873,4.6887,4.6888,4.6897,4.6896,4.6896,4.6896,0,4.636,4.6401,4.6441,4.6497,4.6512,4.6531,4.6578,4.6598,4.6628,4.666,4.667,4.6715,4.675,4.6786,4.6831,4.6849,4.6878,4.6886,4.6865,4.6869,4.6875,4.6874,4.6884,4.6887,4.6894,4.6894,4.6894,0,4.6358,4.6379,4.6438,4.646,4.6486,4.6519,4.6543,4.6583,4.6607,4.6655,4.667,4.6707,4.674,4.6793,4.6828,4.6864,4.6874,4.6875,4.6879,4.687,4.6875,4.6874,4.6877,4.6874,4.6873,4.6873,4.6873,0,4.6351,4.6371,4.6406,4.6449,4.6478,4.6512,4.6548,4.6563,4.661,4.6634,4.6672,4.6697,4.6746,4.6783,4.6823,4.6847,4.6868,4.6871,4.6875,4.6867,4.6854,4.6862,4.6862,4.6871,4.6871,4.6871,4.6871,4.6871,4.6339,4.636,4.6406,4.6444,4.6476,4.6509,4.6533,4.6566,4.6599,4.6644,4.6665,4.6703,4.6742,4.6799,4.6823,4.6851,4.6857,4.6862,4.6863,4.6864,4.6863,4.6849,4.6859,4.6859,4.6859,4.6859,4.6859,0,4.6334,4.6366,4.6401,4.6452,4.6483,4.6502,4.6543,4.6566,4.66,4.6636,4.6669,4.6712,4.6748,4.6787,4.6825,4.6841,4.6851,4.685,4.6849,4.6855,4.6855,4.6849,4.6841,4.6841,4.6841,4.6841,4.6841,4.6841,4.6335,4.6372,4.6398,4.645,4.6481,4.6521,4.6543,4.6573,4.6603,4.6651,4.6683,4.6709,4.6746,4.6788,4.6821,4.6832,4.6845,4.684,4.6853,4.6853,4.6854,4.6856,4.685,4.6843,4.6843,4.6851,4.6851,4.6851]}]]